Le nostre stazioni meteo in Italia

Pubblicità
Il mio iltempo24.it
Braemar, Gran Bretagna (99089): Temperatura & dewpoint: 12.03.2019 19:00:00 - 18.03.2019 19:00:00 (GMT)Braemar, Gran Bretagna (99089): Temperatura -20cm & Temperatura -100cm: 12.03.2019 19:00:00 - 18.03.2019 19:00:00 (GMT)Braemar, Gran Bretagna (99089): precipitazioni: 12.03.2019 19:00:00 - 18.03.2019 19:00:00 (GMT)
Data & Tempo tt [°C] td [°C] tt -20cm [°C] tt -100cm [°C] rr [mm]
18.03.2019 19:00:00 - - - - -
18.03.2019 18:00:00 5,5 1,7 - - 0,0
18.03.2019 17:00:00 6,3 1,9 - - 0,0
18.03.2019 16:00:00 6,4 1,4 - - 0,0
18.03.2019 15:00:00 6,6 1,7 - - 0,0
18.03.2019 14:00:00 6,3 0,9 - - 0,0
18.03.2019 13:00:00 6,3 0,5 - - 0,0
18.03.2019 12:00:00 5,4 0,7 - - 0,0
18.03.2019 11:00:00 4,6 0,1 - - 0,0
18.03.2019 10:00:00 3,9 -1,0 - - 0,0
18.03.2019 09:00:00 1,8 -1,4 2,7 4,4 0,0
18.03.2019 08:00:00 -0,9 -2,4 - - 0,0
18.03.2019 07:00:00 -2,3 -4,0 - - 0,0
18.03.2019 06:00:00 -1,2 -4,5 - - 0,0
18.03.2019 05:00:00 -0,2 -4,2 - - 0,0
18.03.2019 04:00:00 2,2 -4,5 - - 0,0
18.03.2019 03:00:00 0,4 -4,1 - - 0,0
18.03.2019 02:00:00 1,1 -3,8 - - 0,0
18.03.2019 01:00:00 1,6 -3,1 - - 0,0
18.03.2019 00:00:00 1,4 -3,0 - - 0,0
17.03.2019 23:00:00 2,1 -2,8 - - 0,0
17.03.2019 22:00:00 2,3 -2,8 - - 0,0
17.03.2019 21:00:00 2,3 -2,8 - - 0,0
17.03.2019 20:00:00 2,6 -2,4 - - 0,0
17.03.2019 19:00:00 2,6 -2,0 - - 0,0
17.03.2019 18:00:00 2,6 -0,9 - - 0,2
17.03.2019 17:00:00 2,7 -0,9 - - 1,2
17.03.2019 16:00:00 3,9 -0,9 - - 0,4
17.03.2019 15:00:00 3,2 -0,1 - - 1,0
17.03.2019 14:00:00 3,2 -0,1 - - 1,0
17.03.2019 13:00:00 3,5 0,1 - - 0,2
17.03.2019 12:00:00 3,0 0,0 - - 0,2
17.03.2019 11:00:00 2,7 0,2 - - 0,2
17.03.2019 10:00:00 2,8 -0,5 - - 0,0
17.03.2019 09:00:00 2,0 -0,6 3,0 4,4 0,4
17.03.2019 08:00:00 1,7 -1,2 - - 0,0
17.03.2019 07:00:00 1,4 -1,7 - - 0,0
17.03.2019 06:00:00 0,8 -1,3 - - 0,0
17.03.2019 05:00:00 1,4 -2,9 - - 0,0
17.03.2019 04:00:00 0,6 -2,4 - - 0,0
17.03.2019 03:00:00 0,5 -1,9 - - 0,0
17.03.2019 02:00:00 0,6 -3,1 - - 0,0
17.03.2019 01:00:00 0,9 -3,2 - - 0,0
17.03.2019 00:00:00 1,1 -2,1 - - 0,0
16.03.2019 23:00:00 0,9 -1,6 - - 0,0
16.03.2019 22:00:00 0,7 -0,9 - - 0,0
16.03.2019 21:00:00 0,6 -1,4 - - 0,0
16.03.2019 20:00:00 0,5 -1,3 - - 0,2
16.03.2019 19:00:00 0,8 -1,7 - - 0,0
16.03.2019 18:00:00 0,7 -1,2 - - 0,2
16.03.2019 17:00:00 0,5 -0,8 - - 0,6
16.03.2019 16:00:00 0,6 -0,4 - - 1,0
16.03.2019 15:00:00 0,5 -0,2 - - 1,2
16.03.2019 14:00:00 0,6 -0,3 - - 1,6
16.03.2019 13:00:00 0,4 -0,2 - - 1,2
16.03.2019 12:00:00 0,2 -0,2 - - 1,0
16.03.2019 11:00:00 0,1 -0,1 - - 0,6
16.03.2019 10:00:00 0,1 -0,2 - - 0,2
16.03.2019 09:00:00 0,1 -0,1 3,7 4,4 0,0
16.03.2019 08:00:00 0,1 -0,2 - - 0,0
16.03.2019 07:00:00 0,1 -0,2 - - 0,0
16.03.2019 06:00:00 0,5 -0,7 - - 0,0
16.03.2019 05:00:00 1,1 -1,3 - - 0,0
16.03.2019 04:00:00 1,1 -1,5 - - 0,0
16.03.2019 03:00:00 1,8 -2,1 - - 0,0
16.03.2019 02:00:00 1,9 -1,8 - - 0,0
16.03.2019 01:00:00 1,6 -1,7 - - 0,0
16.03.2019 00:00:00 1,6 -1,7 - - 0,0
15.03.2019 23:00:00 1,8 -2,1 - - 0,0
15.03.2019 22:00:00 1,5 -1,3 - - 0,0
15.03.2019 21:00:00 1,7 -1,5 - - 0,0
15.03.2019 20:00:00 1,5 -1,7 - - 0,0
15.03.2019 19:00:00 1,6 -0,8 - - 0,2
15.03.2019 18:00:00 1,9 0,1 - - 0,0
15.03.2019 17:00:00 2,7 0,7 - - 0,0
15.03.2019 16:00:00 1,8 1,1 - - 1,0
15.03.2019 15:00:00 2,7 0,7 - - 0,0
15.03.2019 14:00:00 2,4 0,9 - - 0,4
15.03.2019 13:00:00 2,8 -0,2 - - 0,0
15.03.2019 12:00:00 2,8 0,9 - - 0,2
15.03.2019 11:00:00 3,8 2,1 - - 0,2
15.03.2019 10:00:00 2,5 1,0 - - 0,2
15.03.2019 09:00:00 2,4 1,0 4,0 4,2 0,0
15.03.2019 08:00:00 2,7 0,9 - - 0,2
15.03.2019 07:00:00 2,8 1,0 - - 0,4
15.03.2019 06:00:00 3,5 1,9 - - 0,2
15.03.2019 05:00:00 2,7 1,8 - - 2,0
15.03.2019 04:00:00 3,2 2,2 - - 1,6
15.03.2019 03:00:00 3,9 1,7 - - 0,0
15.03.2019 02:00:00 3,8 1,3 - - 0,0
15.03.2019 01:00:00 4,0 0,8 - - 0,0
15.03.2019 00:00:00 3,6 0,5 - - 0,0
14.03.2019 23:00:00 4,0 0,8 - - 0,0
14.03.2019 22:00:00 4,4 -0,2 - - 0,0
14.03.2019 21:00:00 4,2 0,2 - - 0,0
14.03.2019 20:00:00 3,7 0,7 - - 0,0
14.03.2019 19:00:00 4,0 1,1 - - 0,0
14.03.2019 18:00:00 4,1 1,8 - - 0,2
14.03.2019 17:00:00 5,1 1,8 - - 0,0
14.03.2019 16:00:00 5,7 1,0 - - 0,0
14.03.2019 15:00:00 6,7 0,6 - - 0,0
14.03.2019 14:00:00 6,3 0,7 - - 0,0
14.03.2019 13:00:00 7,3 1,8 - - 0,0
14.03.2019 12:00:00 7,3 2,7 - - 0,0
14.03.2019 11:00:00 6,2 1,1 - - 0,0
14.03.2019 10:00:00 6,8 1,2 - - 0,0
14.03.2019 09:00:00 5,4 1,3 3,7 4,2 0,0
14.03.2019 08:00:00 3,1 1,7 - - 0,2
14.03.2019 07:00:00 2,9 1,9 - - 0,2
14.03.2019 06:00:00 3,6 2,1 - - 0,2
14.03.2019 05:00:00 3,5 2,7 - - 0,2
14.03.2019 04:00:00 4,1 2,7 - - 0,6
14.03.2019 03:00:00 4,3 3,2 - - 1,4
14.03.2019 02:00:00 4,5 3,3 - - 1,0
14.03.2019 01:00:00 4,4 3,3 - - 0,8
14.03.2019 00:00:00 4,0 2,8 - - 0,4
13.03.2019 23:00:00 3,0 1,7 - - 0,4
13.03.2019 22:00:00 3,3 1,3 - - 0,0
13.03.2019 21:00:00 3,3 0,9 - - 0,0
13.03.2019 20:00:00 3,3 0,5 - - 0,0
13.03.2019 19:00:00 4,1 -0,7 - - 0,0
13.03.2019 18:00:00 4,3 1,1 - - 0,0
13.03.2019 17:00:00 4,6 1,3 - - 0,0
13.03.2019 16:00:00 5,3 0,6 - - 0,0
13.03.2019 15:00:00 6,2 1,5 - - 0,2
13.03.2019 14:00:00 6,1 2,5 - - 0,2
13.03.2019 13:00:00 5,8 1,5 - - 0,2
13.03.2019 12:00:00 6,6 1,1 - - 0,2
13.03.2019 11:00:00 6,1 0,8 - - 0,0
13.03.2019 10:00:00 4,9 0,2 - - 0,0
13.03.2019 09:00:00 4,7 -0,1 3,2 4,2 1,4
13.03.2019 08:00:00 3,4 1,2 - - 2,2
13.03.2019 07:00:00 3,3 1,1 - - 3,8
13.03.2019 06:00:00 3,2 1,3 - - 4,4
13.03.2019 05:00:00 2,8 1,3 - - 5,4
13.03.2019 04:00:00 3,3 1,2 - - 5,4
13.03.2019 03:00:00 4,4 1,2 - - 1,0
13.03.2019 02:00:00 3,7 1,5 - - 1,4
13.03.2019 01:00:00 3,7 1,0 - - 0,6
13.03.2019 00:00:00 4,0 0,8 - - 1,6
12.03.2019 23:00:00 2,6 1,3 - - 1,4
12.03.2019 22:00:00 2,7 0,9 - - 0,2
12.03.2019 21:00:00 2,9 1,3 - - 0,8
12.03.2019 20:00:00 2,0 0,5 - - 1,0
12.03.2019 19:00:00 1,9 0,3 - - 1,2

tt = Temperatura
td = dewpoint
tt -20cm = Temperatura -20cm
tt -100cm = Temperatura -100cm
rr = precipitazioni

Stazioni seguenti

WeatherPro
AMSI
MeteoEarth